Theta_e
347 346 345 346 347 348 344 344 344 346 349 340 341 344 346 345 342 343 338 330 329 327 326 326 328 333 338 340 341 341 342 345 347 346 345 345 343 341
345 345 345 345 344 342 342 343 344 344 345 339 340 341 341 340 336 338 338 334 332 331 328 326 325 323 327 335 340 341 340 341 346 348 346 345 344 343
344 343 343 343 343 341 339 338 336 338 339 336 333 333 338 338 337 339 339 339 338 337 335 333 330 326 323 322 330 336 341 340 343 346 347 347 346 345
342 341 339 336 335 336 337 333 331 334 336 338 337 338 337 340 339 339 338 336 337 337 336 335 332 325 326 322 321 329 335 340 342 343 347 347 347 347
337 336 334 334 330 325 325 325 324 322 322 327 330 334 335 334 335 333 332 332 332 333 332 330 326 325 325 325 321 328 334 337 341 343 345 347 347 347
329 328 326 325 324 324 322 318 314 312 313 314 314 316 319 326 327 330 331 334 332 332 329 328 325 324 325 326 326 332 335 339 341 342 344 346 347 347
323 321 317 313 309 310 314 315 316 315 316 318 315 315 314 314 316 318 319 322 322 323 320 321 323 327 328 327 327 327 331 333 339 343 343 343 343 345
318 318 317 315 315 315 313 312 313 315 315 316 315 315 316 317 315 314 314 315 316 315 316 321 323 323 323 321 321 321 327 330 328 333 336 339 344 345
316 316 314 315 316 314 314 314 315 314 313 313 315 316 316 316 317 317 316 315 316 316 316 316 316 317 317 318 319 318 318 318 318 321 326 332 334 337
316 316 316 317 316 310 312 313 313 313 314 313 312 313 313 314 315 315 315 316 315 315 316 317 316 316 317 317 317 317 317 316 315 313 315 320 328 331
317 316 315 315 312 307 310 311 312 312 313 312 310 311 311 310 310 311 313 315 316 316 316 317 317 316 316 317 317 316 315 316 316 315 313 313 319 327
316 316 315 312 309 307 308 310 311 312 311 311 311 312 313 312 312 313 313 314 315 316 317 317 317 317 318 319 319 320 321 323 323 321 323 323 321 322
314 314 313 311 309 307 307 309 310 308 308 309 311 311 311 312 312 313 313 312 313 314 315 315 316 316 317 318 318 319 319 320 321 322 322 321 323 325
313 311 311 309 308 308 308 309 308 307 310 310 310 311 310 310 309 310 310 311 312 312 313 314 315 315 315 316 318 318 319 319 320 320 322 323 323 323
309 309 309 309 309 310 311 309 308 309 309 310 310 310 310 309 310 310 310 312 312 313 314 314 313 313 315 315 316 316 317 318 319 320 321 322 324 325
311 310 309 309 310 310 310 310 310 310 310 310 310 310 309 309 309 309 309 310 311 312 312 313 313 313 313 314 315 316 315 317 319 322 322 323 324 325
307 308 309 310 310 310 310 310 310 310 310 310 310 310 309 308 308 308 308 308 309 310 310 311 312 312 313 314 315 315 315 315 317 319 320 321 321 321
307 309 310 311 311 311 311 311 310 310 310 310 310 310 310 308 307 308 307 308 308 308 309 309 310 311 312 313 313 314 314 315 316 317 319 320 320 321
308 311 311 311 312 311 312 311 311 310 310 311 310 310 310 310 309 309 309 308 307 307 307 308 308 310 313 314 313 313 314 314 316 316 317 319 320 321
312 312 311 311 312 312 312 312 311 311 311 310 310 310 310 310 309 310 310 310 310 308 307 307 307 308 310 313 312 312 312 314 315 316 316 317 318 317
312 311 311 311 311 311 311 311 311 311 311 310 310 309 310 310 310 310 311 309 308 306 305 305 307 307 307 307 309 310 311 311 311 313 314 315 315 317
311 311 311 311 311 311 310 309 309 308 308 308 308 308 309 310 310 310 310 308 308 307 304 306 306 306 306 307 308 310 311 312 312 312 311 311 312 317
311 311 311 310 310 308 308 308 307 307 307 307 306 307 307 308 309 309 308 308 307 305 306 307 306 306 306 306 307 308 309 310 311 313 313 315 315 313
Wind_Speed
3 5 8 8 8 8 12 13 8 3 3 3 3 3 4 4 7 5 4 5 5 7 9 10 11 11 14 19 23 23 23 25 30 31 30 27 27 28
7 7 5 4 3 1 1 7 9 4 2 3 6 3 4 4 5 3 4 7 10 10 12 12 13 16 18 17 19 24 24 25 28 33 33 32 30 29
5 7 8 7 5 4 4 5 5 6 3 5 10 9 6 6 5 5 6 9 12 15 15 17 19 20 20 22 22 22 25 26 26 30 35 36 35 33
8 8 9 8 7 6 6 7 7 6 4 1 6 7 7 8 8 10 11 13 14 14 15 22 24 26 24 24 24 24 23 25 26 28 31 37 37 38
8 9 10 9 9 9 9 7 6 7 8 7 5 2 5 8 7 11 15 18 18 21 20 23 20 18 22 24 24 23 23 23 26 27 27 32 38 38
8 8 9 10 8 7 7 7 9 8 7 5 6 7 11 10 11 13 15 13 13 15 20 22 22 23 25 24 22 22 21 20 24 26 27 27 31 37
6 6 8 9 9 9 8 8 8 9 8 5 6 4 7 8 10 14 17 18 19 17 20 20 19 18 17 17 17 21 21 20 18 21 26 29 31 33
4 4 3 5 6 9 12 12 9 7 10 11 14 13 15 13 12 15 16 17 14 17 19 18 15 18 20 21 20 21 18 20 19 20 21 23 26 31
3 3 4 5 6 10 12 14 12 10 10 11 14 15 17 17 16 17 17 17 19 20 20 24 21 24 23 23 23 24 25 27 28 25 24 25 24 24
2 2 4 5 6 12 13 14 14 15 14 14 15 17 17 17 17 18 20 21 22 23 21 23 22 24 22 22 22 24 27 29 31 31 30 28 28 26
6 6 6 8 8 13 14 16 17 17 16 15 15 20 21 19 17 17 20 20 19 18 18 21 22 21 20 21 23 23 24 24 23 25 29 32 30 29
10 8 10 6 12 14 16 19 20 19 18 21 22 21 17 18 18 18 17 20 20 18 13 16 20 18 17 17 12 11 12 14 11 16 17 22 27 27
13 13 11 12 19 21 21 19 19 20 23 23 21 17 17 18 16 15 16 20 20 21 19 13 18 19 19 21 18 17 16 15 17 19 18 20 23 24
14 14 14 18 22 23 23 18 21 20 20 19 19 18 17 16 17 15 17 18 20 23 21 19 15 17 18 19 19 19 18 17 17 19 19 19 20 21
14 15 19 21 23 23 18 22 20 15 16 17 18 19 18 18 18 20 21 20 22 23 21 20 21 21 23 22 20 19 21 21 20 20 19 21 21 22
12 16 22 25 22 21 24 19 14 15 17 18 18 19 19 20 19 18 18 19 19 20 18 19 21 23 25 24 23 22 22 22 21 17 15 17 19 20
20 22 24 21 20 21 20 20 18 19 18 19 19 19 19 19 20 18 18 18 17 17 19 20 20 23 27 25 23 22 22 25 24 24 22 23 23 24
22 26 27 24 21 21 20 21 19 20 21 22 18 19 22 18 20 19 19 18 16 17 18 20 22 20 20 22 24 25 23 25 25 26 22 23 24 23
23 26 23 22 23 23 23 22 22 24 28 26 23 22 23 21 21 22 21 19 18 19 19 20 21 20 11 12 18 21 24 22 22 22 24 22 21 24
19 21 23 23 21 23 24 24 25 25 25 25 23 23 24 20 22 23 21 20 19 18 19 22 21 20 16 12 15 18 15 22 23 21 21 23 23 23
23 24 25 27 27 27 26 26 28 30 31 30 30 28 27 22 23 25 23 17 18 19 18 19 20 20 19 18 15 20 22 25 30 28 24 20 21 22
24 25 27 28 27 27 28 32 35 36 36 35 32 32 28 24 23 23 20 15 17 16 17 17 14 13 12 14 16 23 20 21 17 20 25 28 27 15
24 26 28 29 26 31 35 34 34 35 34 32 31 29 28 26 24 19 15 18 16 15 14 12 13 13 13 15 18 20 20 20 22 23 26 25 33 33
Wind_Direction
313 284 283 289 282 263 248 258 241 214 192 94 76 120 130 140 155 162 176 204 224 252 262 272 279 283 272 263 254 254 256 249 239 240 241 244 241 237
308 307 305 333 27 52 256 273 234 261 149 102 114 182 191 185 192 197 226 265 278 276 277 283 286 280 275 274 264 254 253 254 247 239 239 240 241 240
347 6 25 11 27 24 19 16 23 353 265 152 178 194 250 246 222 242 255 271 273 267 281 290 290 282 276 270 267 265 257 249 250 245 238 237 238 240
36 38 45 48 54 65 81 54 32 21 334 252 200 204 221 227 251 262 266 271 285 288 287 282 285 281 277 272 266 265 262 255 247 246 244 238 236 237
36 44 46 53 57 55 61 56 38 20 27 4 342 316 274 287 276 279 272 269 262 263 273 281 275 277 280 272 262 261 262 257 249 246 246 240 236 236
57 57 53 51 49 44 47 44 32 27 20 1 321 307 306 291 299 283 277 254 269 268 272 271 270 268 275 272 263 260 260 261 249 246 243 241 238 233
59 67 66 65 51 41 20 9 352 335 322 294 227 270 268 284 279 284 284 279 277 273 277 273 269 256 263 267 267 260 257 257 253 244 243 243 239 237
61 60 70 52 21 13 358 352 337 326 314 307 299 300 294 280 275 279 284 284 287 280 279 271 269 271 269 268 264 266 254 257 258 251 246 244 245 244
18 358 316 16 1 350 336 327 317 301 293 294 291 290 294 288 288 282 274 277 274 277 284 276 272 269 267 266 264 265 265 262 260 253 252 248 247 250
321 313 322 328 331 340 333 323 317 310 300 292 293 294 291 287 280 274 277 276 273 273 264 266 272 268 269 265 263 264 266 268 267 258 251 249 248 246
290 293 307 314 315 333 329 319 313 308 305 292 292 296 295 299 282 275 270 269 273 271 271 267 270 273 271 273 270 266 268 270 268 261 251 246 246 246
290 278 285 273 319 329 325 315 307 308 313 303 294 288 282 288 278 249 266 271 272 277 279 268 268 267 273 271 258 264 262 255 271 273 261 248 246 245
301 302 303 316 312 313 317 308 300 304 305 298 289 288 289 291 287 276 254 241 263 274 275 297 276 280 274 274 273 274 272 268 271 270 266 255 252 244
297 300 308 309 311 312 309 301 299 303 297 301 299 290 282 280 280 283 279 274 261 257 267 275 273 267 274 281 280 280 276 268 266 268 265 261 259 250
298 303 308 311 310 308 311 302 293 287 293 293 297 291 287 290 292 283 277 272 270 262 262 258 258 263 262 263 268 273 285 278 271 265 260 258 254 251
299 312 307 299 299 300 295 290 288 281 286 296 292 288 284 285 286 285 285 281 275 272 264 254 251 250 257 257 262 265 267 265 274 271 258 255 255 257
305 300 297 298 293 289 291 295 297 296 289 289 287 284 284 281 276 279 278 280 279 275 269 264 256 256 252 259 268 260 261 267 265 265 264 263 259 256
296 293 294 299 294 293 291 285 281 282 283 282 272 273 273 272 269 269 267 269 270 269 267 264 271 269 263 255 248 262 259 259 264 268 263 264 266 260
281 287 290 293 288 285 289 284 281 280 279 273 268 258 259 265 265 267 267 263 260 261 263 261 258 266 260 258 258 245 258 261 260 264 268 258 262 275
282 297 303 296 282 278 280 282 280 279 276 280 277 265 257 256 261 264 261 264 269 263 263 258 245 251 260 268 282 274 264 261 263 270 271 271 270 275
310 309 306 305 303 304 301 301 303 302 297 291 284 277 271 256 250 253 263 271 273 276 262 263 240 251 264 288 276 267 261 256 253 260 270 277 276 274
310 310 308 308 307 306 311 301 290 285 280 276 272 276 275 266 251 252 256 262 269 272 264 251 250 255 257 258 268 268 277 278 283 265 255 257 263 262
316 314 313 311 312 314 302 297 294 290 285 279 277 268 264 259 263 242 240 252 264 265 253 246 243 238 247 257 268 277 282 278 273 271 274 272 264 249